User: anonymous   Login
Location: Unspecified
(0.0000°N, 0.0000°E)
Time: 08:19:31
(UTC+01:00)
Language:

Cosmos 1933 - Orbit

View from above orbital plane
View from above orbital plane
View from above satellite
View from above satellite

Ground track
Ground track

The orbit data is extracted from the following two-line orbital elements,

1 18958U 88020A   17328.48809457 +.00000684 +00000-0 +48186-4 0  9994
2 18958 082.5277 309.1544 0013292 096.0878 264.1863 15.03349749594446
Epoch (UTC): 24 November 2017 11:42:51
Eccentricity: 0.0013292
inclination: 82.5277°
perigee height: 547 km
apogee height: 566 km
right ascension of ascending node: 309.1544°
argument of perigee: 96.0878°
revolutions per day: 15.03349749
mean anomaly at epoch: 264.1863°
orbit number at epoch: 59444

The dashed part of the orbit path shows where the satellite is in the earth's shadow,  

DLR